Vorticity
8 15 11 11 10 13 35 14 10 11 -7 14 19 24 46 6 -7 5 11 35 5 -2 7 -17 6 46 4 3 2 -0 -1 -1 -4 3 3 13 8 6 12 6 9 6 7
10 11 8 5 9 13 31 82 -66 74 16 -4 15 10 -10 -15 -1 -11 -1 -17 1 1 2 5 10 52 6 0 2 0 0 2 -1 -0 10 5 7 5 8 6 10 9 8
15 8 8 3 -13 10 34 1 81 -23 20 26 9 16 10 12 -2 -2 0 -0 -3 2 0 20 4 51 0 12 11 6 6 -1 6 8 17 6 6 5 8 7 8 5 7
11 11 13 -0 -0 -1 24 26 26 43 3 -70 -14 54 10 9 62 50 52 28 53 46 58 -24 62 20 13 -2 1 9 8 19 8 9 8 7 11 6 5 4 3 5 6
16 13 11 11 6 18 9 -19 9 34 34 92 6 -16 40 32 17 -7 -8 20 22 52 29 69 1 -29 38 10 -7 2 9 5 13 11 5 10 9 4 8 7 5 4 6
23 19 13 8 4 14 18 -0 1 41 9 8 10 8 18 15 31 39 71 64 30 16 14 -2 15 4 11 32 -3 5 3 -0 4 10 4 8 17 9 9 0 5 5 10
15 20 12 8 7 21 -1 -11 -31 40 22 44 29 21 -4 19 25 -12 10 2 -4 6 14 10 7 12 -1 7 2 13 15 4 11 9 15 17 12 5 7 4 6 7 12
15 14 19 7 5 10 3 14 -42 20 -5 14 2 11 43 24 24 17 17 9 3 5 9 9 12 11 14 12 20 22 20 25 24 7 7 2 7 7 13 14 13 12 10
11 15 10 19 17 7 12 17 18 13 -10 27 22 -1 5 6 16 4 -3 13 9 8 3 4 9 10 14 16 8 8 8 8 7 8 13 14 7 3 3 2 3 3 4
12 11 13 13 20 14 1 27 17 3 12 19 21 -9 13 -7 23 11 -1 14 2 12 15 10 3 8 7 11 11 13 10 6 6 5 3 3 4 5 5 6 7 6 7
14 12 17 15 22 12 4 7 7 12 1 35 16 15 16 16 25 10 8 8 9 6 8 11 11 8 7 6 5 2 3 4 4 3 3 3 4 4 5 5 5 3 3
14 9 17 16 20 10 11 5 -1 8 14 -7 12 9 10 6 3 4 9 7 5 8 8 7 4 2 3 3 4 5 6 5 5 4 4 4 5 5 6 7 8 9 10
11 3 20 18 20 20 15 10 9 12 21 -3 18 12 7 5 11 15 11 10 6 4 3 4 4 3 2 5 5 3 3 2 2 4 5 7 9 10 11 13 14 14 13
8 8 23 21 16 -4 30 17 7 1 5 14 8 10 9 14 16 6 4 3 4 5 4 2 2 5 7 5 3 5 7 8 12 13 13 14 11 10 10 15 17 19 21
12 21 16 23 26 -4 5 19 13 16 8 7 11 13 10 3 3 4 5 3 2 2 3 7 6 4 5 7 7 10 12 13 9 13 17 21 25 29 36 41 44 44 43
22 14 10 20 6 14 8 6 5 10 12 13 8 2 3 4 4 2 2 5 9 7 5 4 6 8 12 16 12 11 16 20 21 29 39 44 46 45 41 39 36 34 34
7 24 13 3 11 9 10 12 10 11 8 4 4 4 3 2 5 8 7 3 8 11 13 18 18 12 12 14 17 19 29 38 41 40 37 36 34 32 32 32 31 33 34
17 15 12 5 7 23 19 12 8 6 5 4 3 4 8 7 5 8 11 11 12 14 9 8 11 13 16 25 36 40 38 35 35 36 33 32 31 27 24 23 25 24 27
1 -0 21 40 11 6 6 5 4 4 5 7 9 5 6 9 12 16 15 10 9 9 12 16 18 31 39 35 32 34 37 37 35 23 16 12 15 18 13 18 17 22 20
48 19 5 6 5 4 4 4 6 7 6 5 6 10 17 16 10 7 10 12 15 16 20 33 38 32 33 34 38 39 35 18 8 8 10 18 25 15 15 11 10 8 13
4 5 5 5 5 4 5 7 6 5 7 16 18 11 8 7 11 10 14 15 21 34 35 31 31 30 33 38 35 29 3 7 15 24 25 12 2 16 17 11 11 13 16
4 4 5 4 5 7 5 4 10 18 14 10 8 10 12 12 14 16 18 33 33 27 27 30 25 35 41 34 22 -1 6 9 19 10 9 20 13 6 9 18 19 16 17
5 6 4 5 5 8 15 18 13 8 8 10 12 12 12 13 14 21 36 26 23 27 27 27 27 35 33 19 -0 -0 7 17 10 14 14 12 4 12 23 6 10 12 14
3 4 8 10 11 14 11 7 7 10 12 10 10 12 12 13 22 34 24 24 27 27 28 29 33 33 18 1 1 4 16 13 13 10 12 6 21 8 15 9 8 13 17
7 8 10 11 10 9 9 9 10 9 9 9 11 12 14 23 33 23 24 25 25 25 29 33 28 23 1 2 -2 13 13 10 10 13 14 10 6 12 20 17 20 17 11
9 8 8 10 12 10 8 10 10 8 8 10 12 13 19 35 23 21 25 22 22 26 31 26 26 14 -2 -4 3 14 12 15 12 15 22 12 6 23 7 15 10 13 13
Height
5651 5650 5648 5647 5646 5645 5645 5647 5647 5649 5650 5653 5659 5659 5653 5657 5660 5662 5664 5661 5662 5663 5664 5661 5663 5663 5665 5669 5669 5670 5671 5671 5671 5670 5669 5667 5666 5666 5666 5665 5663 5661 5658
5638 5637 5636 5636 5636 5637 5632 5632 5628 5628 5635 5641 5643 5638 5640 5641 5647 5650 5652 5650 5650 5651 5649 5651 5652 5651 5653 5652 5655 5657 5657 5656 5655 5655 5653 5654 5653 5653 5653 5651 5650 5649 5646
5625 5625 5625 5623 5624 5625 5626 5624 5621 5621 5617 5624 5628 5631 5631 5635 5637 5635 5636 5637 5638 5638 5639 5639 5638 5636 5638 5640 5641 5642 5643 5642 5641 5640 5641 5640 5639 5640 5639 5640 5638 5636 5632
5610 5612 5612 5611 5611 5615 5616 5612 5614 5612 5614 5612 5615 5618 5621 5621 5620 5620 5617 5620 5621 5619 5620 5622 5621 5625 5626 5627 5626 5626 5627 5626 5625 5625 5626 5626 5625 5625 5624 5626 5625 5621 5618
5594 5597 5599 5600 5601 5605 5607 5604 5602 5600 5601 5601 5602 5605 5607 5608 5608 5605 5609 5607 5607 5609 5610 5608 5612 5615 5614 5613 5614 5613 5612 5611 5610 5609 5609 5610 5609 5608 5608 5609 5609 5606 5602
5580 5583 5587 5588 5591 5594 5595 5594 5593 5590 5591 5591 5593 5596 5594 5595 5596 5595 5595 5595 5596 5597 5598 5600 5601 5604 5601 5599 5599 5598 5597 5596 5594 5594 5593 5592 5591 5591 5590 5591 5591 5587 5587
5569 5571 5574 5577 5580 5585 5586 5585 5586 5583 5582 5582 5584 5584 5583 5583 5584 5584 5586 5586 5585 5586 5588 5588 5588 5589 5588 5588 5586 5584 5582 5580 5579 5578 5577 5575 5573 5572 5573 5575 5568 5568 5568
5559 5561 5563 5566 5570 5574 5575 5575 5575 5575 5574 5573 5574 5575 5575 5575 5575 5575 5575 5575 5575 5576 5577 5576 5575 5575 5574 5574 5571 5568 5565 5563 5562 5561 5560 5559 5557 5555 5553 5549 5548 5548 5548
5550 5552 5554 5555 5560 5563 5566 5566 5566 5567 5566 5565 5565 5565 5566 5565 5565 5566 5566 5566 5566 5566 5566 5565 5562 5560 5559 5556 5554 5554 5552 5548 5546 5544 5542 5538 5536 5533 5528 5527 5526 5526 5529
5542 5544 5545 5547 5550 5553 5556 5559 5559 5559 5558 5557 5557 5557 5556 5556 5557 5557 5556 5556 5556 5554 5553 5552 5549 5547 5545 5543 5541 5537 5535 5532 5529 5525 5521 5516 5512 5508 5506 5503 5501 5500 5501
5536 5537 5538 5540 5543 5545 5549 5552 5553 5552 5551 5550 5550 5548 5547 5547 5547 5547 5547 5546 5544 5542 5540 5538 5535 5533 5530 5526 5522 5518 5515 5511 5506 5501 5496 5491 5486 5481 5477 5475 5472 5469 5469
5531 5532 5533 5534 5536 5539 5541 5545 5547 5546 5545 5544 5543 5541 5540 5540 5539 5539 5538 5535 5532 5530 5527 5523 5519 5515 5510 5506 5501 5496 5491 5487 5481 5475 5470 5464 5459 5453 5447 5441 5436 5433 5430
5525 5527 5527 5529 5531 5534 5535 5538 5541 5540 5539 5538 5536 5535 5534 5532 5531 5529 5527 5525 5521 5517 5513 5509 5503 5499 5493 5487 5480 5475 5468 5461 5454 5448 5441 5433 5426 5420 5413 5406 5400 5394 5388
5520 5521 5521 5523 5526 5530 5530 5532 5534 5534 5534 5533 5531 5529 5527 5525 5522 5520 5517 5514 5508 5504 5499 5493 5488 5482 5475 5468 5460 5451 5443 5433 5425 5416 5408 5399 5390 5382 5374 5366 5361 5353 5347
5516 5516 5517 5519 5522 5525 5526 5528 5528 5528 5527 5525 5524 5522 5519 5517 5513 5510 5505 5501 5496 5491 5484 5477 5470 5462 5452 5442 5433 5424 5414 5404 5393 5382 5373 5364 5353 5343 5334 5326 5318 5314 5307
5513 5513 5515 5517 5520 5521 5522 5522 5522 5522 5521 5519 5517 5514 5510 5507 5503 5497 5493 5488 5482 5475 5466 5455 5445 5436 5427 5417 5405 5393 5380 5369 5358 5347 5336 5327 5319 5311 5305 5298 5293 5288 5285
5511 5511 5512 5515 5516 5516 5517 5517 5517 5517 5514 5512 5509 5506 5502 5496 5490 5485 5478 5470 5460 5451 5442 5432 5421 5409 5398 5382 5370 5357 5346 5336 5328 5320 5312 5307 5300 5295 5290 5284 5280 5276 5273
5510 5510 5511 5512 5513 5513 5513 5513 5512 5512 5509 5506 5501 5496 5491 5485 5477 5468 5458 5448 5438 5427 5415 5402 5388 5376 5364 5354 5344 5335 5326 5319 5313 5308 5303 5298 5293 5288 5285 5280 5276 5272 5269
5508 5509 5510 5511 5510 5511 5512 5511 5510 5507 5502 5498 5493 5486 5479 5471 5461 5451 5441 5428 5415 5401 5389 5379 5368 5357 5345 5335 5327 5321 5315 5311 5307 5303 5299 5295 5291 5288 5284 5280 5276 5273 5269
5509 5509 5509 5510 5511 5511 5509 5507 5505 5501 5494 5489 5483 5476 5468 5458 5447 5435 5422 5411 5399 5387 5374 5361 5348 5337 5329 5322 5316 5312 5310 5309 5306 5303 5299 5296 5293 5289 5286 5283 5279 5276 5273
5510 5511 5512 5511 5510 5508 5506 5502 5497 5493 5489 5482 5475 5467 5458 5445 5433 5422 5410 5395 5380 5366 5352 5341 5332 5324 5318 5313 5312 5312 5312 5310 5307 5303 5300 5298 5295 5292 5288 5285 5282 5279 5277
5513 5513 5512 5511 5508 5504 5501 5497 5492 5488 5481 5473 5464 5453 5443 5433 5421 5408 5392 5376 5362 5349 5339 5331 5324 5318 5314 5313 5314 5315 5314 5311 5309 5306 5304 5300 5297 5294 5291 5288 5285 5282 5280
5515 5514 5511 5508 5506 5502 5499 5494 5488 5481 5473 5464 5455 5446 5435 5420 5406 5391 5375 5363 5353 5343 5334 5327 5322 5318 5316 5317 5318 5318 5316 5314 5312 5309 5306 5303 5300 5297 5294 5291 5289 5287 5285
5515 5513 5512 5509 5505 5501 5496 5490 5483 5476 5468 5460 5449 5436 5422 5406 5393 5380 5369 5359 5348 5339 5332 5326 5322 5321 5321 5322 5322 5321 5320 5318 5315 5312 5309 5306 5303 5300 5298 5296 5294 5292 5290
5517 5514 5511 5507 5502 5498 5492 5485 5479 5472 5463 5452 5439 5428 5412 5399 5386 5376 5366 5357 5348 5339 5333 5329 5327 5327 5327 5327 5327 5325 5324 5321 5318 5315 5312 5310 5307 5305 5302 5300 5298 5297 5296
5517 5513 5510 5506 5501 5495 5489 5483 5476 5466 5456 5447 5436 5422 5407 5394 5384 5376 5367 5359 5351 5345 5339 5336 5334 5334 5334 5333 5332 5330 5328 5325 5322 5319 5316 5314 5312 5309 5307 5306 5304 5303 5302